Time,TemperatureF,DewpointF,PressureIn,WindDirection,WindDirectionDegrees,WindSpeedMPH,WindSpeedGustMPH,Humidity,HourlyPrecipIn,Conditions,Clouds,dailyrainin,SolarRadiationWatts/m^2,SoftwareType,DateUTC
2013-02-01 00:02:00,-6.0,-13.0,-100.00,WNW,297,4.0,10.0,69,0.00,,,0.00,0.000000,,2013-02-01 06:02:00,
2013-02-01 00:32:00,-6.0,-13.0,-100.00,WNW,297,4.0,10.0,69,0.00,,,0.00,0.000000,,2013-02-01 06:32:00,
2013-02-01 00:42:00,-6.0,-13.0,-100.00,WNW,297,4.0,10.0,69,0.00,,,0.00,0.000000,,2013-02-01 06:42:00,
2013-02-01 00:52:00,-6.0,-13.0,-100.00,WNW,297,4.0,10.0,69,0.00,,,0.00,0.000000,,2013-02-01 06:52:00,
2013-02-01 01:32:00,-8.0,-16.0,-100.00,WNW,303,4.0,12.0,68,0.00,,,0.00,0.000000,,2013-02-01 07:32:00,
2013-02-01 01:42:00,-8.0,-16.0,-100.00,WNW,303,4.0,12.0,68,0.00,,,0.00,0.000000,,2013-02-01 07:42:00,
2013-02-01 01:52:00,-8.0,-16.0,-100.00,WNW,303,4.0,12.0,68,0.00,,,0.00,0.000000,,2013-02-01 07:52:00,
2013-02-01 02:01:00,-8.0,-16.0,-100.00,WNW,303,4.0,12.0,68,0.00,,,0.00,0.000000,,2013-02-01 08:01:00,
2013-02-01 02:32:00,-10.0,-18.0,-100.00,WNW,301,5.0,10.0,68,0.00,,,0.00,0.000000,,2013-02-01 08:32:00,
2013-02-01 02:42:00,-10.0,-18.0,-100.00,WNW,301,5.0,10.0,68,0.00,,,0.00,0.000000,,2013-02-01 08:42:00,
2013-02-01 02:52:00,-10.0,-18.0,-100.00,WNW,301,5.0,10.0,68,0.00,,,0.00,0.000000,,2013-02-01 08:52:00,
2013-02-01 03:01:00,-10.0,-18.0,-100.00,WNW,301,5.0,10.0,68,0.00,,,0.00,0.000000,,2013-02-01 09:01:00,
2013-02-01 03:32:00,-13.0,-20.0,-100.00,WNW,297,4.0,12.0,68,0.00,,,0.00,0.000000,,2013-02-01 09:32:00,
2013-02-01 03:42:00,-13.0,-20.0,-100.00,WNW,297,4.0,12.0,68,0.00,,,0.00,0.000000,,2013-02-01 09:42:00,
2013-02-01 03:52:00,-13.0,-20.0,-100.00,WNW,297,4.0,12.0,68,0.00,,,0.00,0.000000,,2013-02-01 09:52:00,
2013-02-01 04:01:00,-13.0,-20.0,-100.00,WNW,297,4.0,12.0,68,0.00,,,0.00,0.000000,,2013-02-01 10:01:00,
2013-02-01 04:02:00,-15.0,-23.0,-100.00,WNW,282,3.0,9.0,67,0.00,,,0.00,0.000000,,2013-02-01 10:02:00,
2013-02-01 04:21:00,-15.0,-23.0,-100.00,WNW,282,3.0,9.0,67,0.00,,,0.00,0.000000,,2013-02-01 10:21:00,
2013-02-01 04:32:00,-15.0,-23.0,-100.00,WNW,282,3.0,9.0,67,0.00,,,0.00,0.000000,,2013-02-01 10:32:00,
2013-02-01 04:43:00,-15.0,-23.0,-100.00,WNW,282,3.0,9.0,67,0.00,,,0.00,0.000000,,2013-02-01 10:43:00,
2013-02-01 04:53:00,-15.0,-23.0,-100.00,WNW,282,3.0,9.0,67,0.00,,,0.00,0.000000,,2013-02-01 10:53:00,
2013-02-01 05:02:00,-16.0,-24.0,-100.00,WNW,285,3.0,8.0,66,0.00,,,0.00,0.000000,,2013-02-01 11:02:00,
2013-02-01 05:32:00,-16.0,-24.0,-100.00,WNW,285,3.0,8.0,66,0.00,,,0.00,0.000000,,2013-02-01 11:32:00,
2013-02-01 05:42:00,-16.0,-24.0,-100.00,WNW,285,3.0,8.0,66,0.00,,,0.00,0.000000,,2013-02-01 11:42:00,
2013-02-01 05:53:00,-16.0,-24.0,-100.00,WNW,285,3.0,8.0,66,0.00,,,0.00,0.000000,,2013-02-01 11:53:00,
2013-02-01 06:02:00,-18.0,-26.0,-100.00,WSW,248,2.0,7.0,65,0.00,,,0.00,0.000000,,2013-02-01 12:02:00,
2013-02-01 06:23:00,-18.0,-26.0,-100.00,WSW,248,2.0,7.0,65,0.00,,,0.00,0.000000,,2013-02-01 12:23:00,
2013-02-01 06:32:00,-18.0,-26.0,-100.00,WSW,248,2.0,7.0,65,0.00,,,0.00,0.000000,,2013-02-01 12:32:00,
2013-02-01 06:42:00,-18.0,-26.0,-100.00,WSW,248,2.0,7.0,65,0.00,,,0.00,0.000000,,2013-02-01 12:42:00,
2013-02-01 06:52:00,-18.0,-26.0,-100.00,WSW,248,2.0,7.0,65,0.00,,,0.00,0.000000,,2013-02-01 12:52:00,
2013-02-01 07:02:00,-20.0,-28.0,-100.00,West,270,2.0,6.0,64,0.00,,,0.00,0.000000,,2013-02-01 13:02:00,
2013-02-01 07:33:00,-20.0,-28.0,-100.00,West,270,2.0,6.0,64,0.00,,,0.00,0.000000,,2013-02-01 13:33:00,
2013-02-01 07:43:00,-20.0,-28.0,-100.00,West,270,2.0,6.0,64,0.00,,,0.00,0.000000,,2013-02-01 13:43:00,
2013-02-01 07:53:00,-20.0,-28.0,-100.00,West,270,2.0,6.0,64,0.00,,,0.00,0.000000,,2013-02-01 13:53:00,
2013-02-01 08:02:00,-19.0,-27.0,-100.00,West,271,2.0,5.0,64,0.00,,,0.00,10.000000,,2013-02-01 14:02:00,
2013-02-01 08:32:00,-19.0,-27.0,-100.00,West,271,2.0,5.0,64,0.00,,,0.00,10.000000,,2013-02-01 14:32:00,
2013-02-01 08:42:00,-19.0,-27.0,-100.00,West,271,2.0,5.0,64,0.00,,,0.00,10.000000,,2013-02-01 14:42:00,
2013-02-01 08:53:00,-19.0,-27.0,-100.00,West,271,2.0,5.0,64,0.00,,,0.00,10.000000,,2013-02-01 14:53:00,
2013-02-01 09:02:00,-14.0,-25.0,-100.00,West,276,4.0,9.0,56,0.00,,,0.00,153.000000,,2013-02-01 15:02:00,
2013-02-01 09:33:00,-14.0,-25.0,-100.00,West,276,4.0,9.0,56,0.00,,,0.00,153.000000,,2013-02-01 15:33:00,
2013-02-01 09:42:00,-14.0,-25.0,-100.00,West,276,4.0,9.0,56,0.00,,,0.00,153.000000,,2013-02-01 15:42:00,
2013-02-01 09:52:00,-14.0,-25.0,-100.00,West,276,4.0,9.0,56,0.00,,,0.00,153.000000,,2013-02-01 15:52:00,
2013-02-01 10:02:00,-10.0,-23.0,-100.00,WNW,289,4.0,8.0,52,0.00,,,0.00,356.000000,,2013-02-01 16:02:00,
2013-02-01 10:33:00,-10.0,-23.0,-100.00,WNW,289,4.0,8.0,52,0.00,,,0.00,356.000000,,2013-02-01 16:33:00,
2013-02-01 10:43:00,-10.0,-23.0,-100.00,WNW,289,4.0,8.0,52,0.00,,,0.00,356.000000,,2013-02-01 16:43:00,
2013-02-01 10:52:00,-10.0,-23.0,-100.00,WNW,289,4.0,8.0,52,0.00,,,0.00,356.000000,,2013-02-01 16:52:00,
2013-02-01 11:02:00,-5.0,-19.0,-100.00,WSW,253,3.0,7.0,49,0.00,,,0.00,492.000000,,2013-02-01 17:02:00,
2013-02-01 11:32:00,-5.0,-19.0,-100.00,WSW,253,3.0,7.0,49,0.00,,,0.00,492.000000,,2013-02-01 17:32:00,
2013-02-01 11:42:00,-5.0,-19.0,-100.00,WSW,253,3.0,7.0,49,0.00,,,0.00,492.000000,,2013-02-01 17:42:00,
2013-02-01 11:53:00,-5.0,-19.0,-100.00,WSW,253,3.0,7.0,49,0.00,,,0.00,492.000000,,2013-02-01 17:53:00,
2013-02-01 12:02:00,-2.0,-17.0,-100.00,West,268,4.0,9.0,47,0.00,,,0.00,561.000000,,2013-02-01 18:02:00,
2013-02-01 12:23:00,-2.0,-17.0,-100.00,West,268,4.0,9.0,47,0.00,,,0.00,561.000000,,2013-02-01 18:23:00,
2013-02-01 12:32:00,-2.0,-17.0,-100.00,West,268,4.0,9.0,47,0.00,,,0.00,561.000000,,2013-02-01 18:32:00,
2013-02-01 12:42:00,-2.0,-17.0,-100.00,West,268,4.0,9.0,47,0.00,,,0.00,561.000000,,2013-02-01 18:42:00,
2013-02-01 12:53:00,-2.0,-17.0,-100.00,West,268,4.0,9.0,47,0.00,,,0.00,561.000000,,2013-02-01 18:53:00,
2013-02-01 13:02:00,1.0,-16.0,-100.00,WSW,241,5.0,9.0,44,0.00,,,0.00,622.000000,,2013-02-01 19:02:00,
2013-02-01 13:32:00,1.0,-16.0,-100.00,WSW,241,5.0,9.0,44,0.00,,,0.00,622.000000,,2013-02-01 19:32:00,
2013-02-01 13:42:00,1.0,-16.0,-100.00,WSW,241,5.0,9.0,44,0.00,,,0.00,622.000000,,2013-02-01 19:42:00,
2013-02-01 13:52:00,1.0,-16.0,-100.00,WSW,241,5.0,9.0,44,0.00,,,0.00,622.000000,,2013-02-01 19:52:00,
2013-02-01 14:02:00,0.0,-17.0,-100.00,SSW,213,5.0,12.0,44,0.00,,,0.00,550.000000,,2013-02-01 20:02:00,
2013-02-01 14:22:00,0.0,-17.0,-100.00,SSW,213,5.0,12.0,44,0.00,,,0.00,550.000000,,2013-02-01 20:22:00,
2013-02-01 14:32:00,0.0,-17.0,-100.00,SSW,213,5.0,12.0,44,0.00,,,0.00,550.000000,,2013-02-01 20:32:00,
2013-02-01 14:42:00,0.0,-17.0,-100.00,SSW,213,5.0,12.0,44,0.00,,,0.00,550.000000,,2013-02-01 20:42:00,
2013-02-01 14:52:00,0.0,-17.0,-100.00,SSW,213,5.0,12.0,44,0.00,,,0.00,550.000000,,2013-02-01 20:52:00,
2013-02-01 15:02:00,-2.0,-18.0,-100.00,SSW,202,5.0,11.0,45,0.00,,,0.00,369.000000,,2013-02-01 21:02:00,
2013-02-01 15:32:00,-2.0,-18.0,-100.00,SSW,202,5.0,11.0,45,0.00,,,0.00,369.000000,,2013-02-01 21:32:00,
2013-02-01 15:42:00,-2.0,-18.0,-100.00,SSW,202,5.0,11.0,45,0.00,,,0.00,369.000000,,2013-02-01 21:42:00,
2013-02-01 15:52:00,-2.0,-18.0,-100.00,SSW,202,5.0,11.0,45,0.00,,,0.00,369.000000,,2013-02-01 21:52:00,
2013-02-01 16:32:00,-3.0,-18.0,-100.00,WSW,251,4.0,11.0,48,0.00,,,0.00,166.000000,,2013-02-01 22:32:00,
2013-02-01 16:42:00,-3.0,-18.0,-100.00,WSW,251,4.0,11.0,48,0.00,,,0.00,166.000000,,2013-02-01 22:42:00,
2013-02-01 16:52:00,-3.0,-18.0,-100.00,WSW,251,4.0,11.0,48,0.00,,,0.00,166.000000,,2013-02-01 22:52:00,
2013-02-01 17:01:00,-3.0,-18.0,-100.00,WSW,251,4.0,11.0,48,0.00,,,0.00,166.000000,,2013-02-01 23:01:00,
2013-02-01 17:02:00,-5.0,-18.0,-100.00,SW,229,3.0,8.0,52,0.00,,,0.00,35.000000,,2013-02-01 23:02:00,
2013-02-01 17:32:00,-5.0,-18.0,-100.00,SW,229,3.0,8.0,52,0.00,,,0.00,35.000000,,2013-02-01 23:32:00,
2013-02-01 17:42:00,-5.0,-18.0,-100.00,SW,229,3.0,8.0,52,0.00,,,0.00,35.000000,,2013-02-01 23:42:00,
2013-02-01 17:52:00,-5.0,-18.0,-100.00,SW,229,3.0,8.0,52,0.00,,,0.00,35.000000,,2013-02-01 23:52:00,
2013-02-01 18:02:00,-5.0,-17.0,-100.00,SW,230,2.0,6.0,56,0.00,,,0.00,1.000000,,2013-02-02 00:02:00,
2013-02-01 18:32:00,-5.0,-17.0,-100.00,SW,230,2.0,6.0,56,0.00,,,0.00,1.000000,,2013-02-02 00:32:00,
2013-02-01 18:42:00,-5.0,-17.0,-100.00,SW,230,2.0,6.0,56,0.00,,,0.00,1.000000,,2013-02-02 00:42:00,
2013-02-01 18:52:00,-5.0,-17.0,-100.00,SW,230,2.0,6.0,56,0.00,,,0.00,1.000000,,2013-02-02 00:52:00,
2013-02-01 19:32:00,-4.0,-16.0,-100.00,SW,225,2.0,5.0,56,0.00,,,0.00,0.000000,,2013-02-02 01:32:00,
2013-02-01 19:42:00,-4.0,-16.0,-100.00,SW,225,2.0,5.0,56,0.00,,,0.00,0.000000,,2013-02-02 01:42:00,
2013-02-01 19:52:00,-4.0,-16.0,-100.00,SW,225,2.0,5.0,56,0.00,,,0.00,0.000000,,2013-02-02 01:52:00,
2013-02-01 20:01:00,-4.0,-16.0,-100.00,SW,225,2.0,5.0,56,0.00,,,0.00,0.000000,,2013-02-02 02:01:00,
2013-02-01 20:02:00,-5.0,-17.0,-100.00,SSW,206,3.0,7.0,56,0.00,,,0.00,0.000000,,2013-02-02 02:02:00,
2013-02-01 20:32:00,-5.0,-17.0,-100.00,SSW,206,3.0,7.0,56,0.00,,,0.00,0.000000,,2013-02-02 02:32:00,
2013-02-01 20:42:00,-5.0,-17.0,-100.00,SSW,206,3.0,7.0,56,0.00,,,0.00,0.000000,,2013-02-02 02:42:00,
2013-02-01 20:52:00,-5.0,-17.0,-100.00,SSW,206,3.0,7.0,56,0.00,,,0.00,0.000000,,2013-02-02 02:52:00,
2013-02-01 21:22:00,-5.0,-16.0,-100.00,SSW,212,2.0,6.0,59,0.00,,,0.00,0.000000,,2013-02-02 03:22:00,
2013-02-01 21:32:00,-5.0,-16.0,-100.00,SSW,212,2.0,6.0,59,0.00,,,0.00,0.000000,,2013-02-02 03:32:00,
2013-02-01 21:42:00,-5.0,-16.0,-100.00,SSW,212,2.0,6.0,59,0.00,,,0.00,0.000000,,2013-02-02 03:42:00,
2013-02-01 21:52:00,-5.0,-16.0,-100.00,SSW,212,2.0,6.0,59,0.00,,,0.00,0.000000,,2013-02-02 03:52:00,
2013-02-01 22:01:00,-5.0,-16.0,-100.00,SSW,212,2.0,6.0,59,0.00,,,0.00,0.000000,,2013-02-02 04:01:00,
2013-02-01 22:02:00,-5.0,-15.0,-100.00,SW,224,2.0,6.0,61,0.00,,,-99.99,0.000000,,2013-02-02 04:02:00,
2013-02-01 22:32:00,-5.0,-15.0,-100.00,SW,224,2.0,6.0,61,0.00,,,-99.99,0.000000,,2013-02-02 04:32:00,
2013-02-01 22:42:00,-5.0,-15.0,-100.00,SW,224,2.0,6.0,61,0.00,,,-99.99,0.000000,,2013-02-02 04:42:00,
2013-02-01 22:52:00,-5.0,-15.0,-100.00,SW,224,2.0,6.0,61,0.00,,,-99.99,0.000000,,2013-02-02 04:52:00,
2013-02-01 23:02:00,-5.0,-14.0,-100.00,SW,230,2.0,6.0,63,0.00,,,0.00,0.000000,,2013-02-02 05:02:00,
2013-02-01 23:33:00,-5.0,-14.0,-100.00,SW,230,2.0,6.0,63,0.00,,,0.00,0.000000,,2013-02-02 05:33:00,
2013-02-01 23:42:00,-5.0,-14.0,-100.00,SW,230,2.0,6.0,63,0.00,,,0.00,0.000000,,2013-02-02 05:42:00,
2013-02-01 23:52:00,-5.0,-14.0,-100.00,SW,230,2.0,6.0,63,0.00,,,0.00,0.000000,,2013-02-02 05:52:00,